Location: Rancho Del Sol Observatory
(38.7214°N, 120.6350°W)
Time: 22:41:26
(UTC-08:00)

Courier 1B Rocket - Pass Details

Date: 01 February 2020
Orbit: 920 x 1202 km, 28.2° (Epoch: 27 February)

Event Time Altitude Azimuth Distance (km) Brightness Sun altitude
Rises 10:13:12 0° 250° (WSW) 4,083 8.1 27.2°
Reaches altitude 10° 10:16:18 10° 243° (WSW) 3,102 7.7 27.5°
Maximum altitude 10:23:14 37° 179° (S) 1,701 7.7 28.2°
Drops below altitude 10° 10:29:51 10° 115° (ESE) 2,956 8.5 28.9°
Sets 10:32:45 0° 107° (ESE) 3,869 8.7 29.2°
